,,,PA_Meas_PMT16A,,PR_Meas_QMR101_102,,RH_Meas_QMH101,,SR_Meas_QMS101,,TA_Meas_QMH101,,GenWind,,GenWind,
date,time,status,PA,status,PR,status,RH,status,SR,status,TA,status,DirAvg,status,SpdAvg,
2010-02-05, 00:00:04,VALID,1006.36,VALID,0,VALID,73.8399,VALID,0,VALID,25.2416,VALID,24,VALID,1.17461,
2010-02-05, 00:01:04,VALID,1006.36,VALID,0,VALID,73.6416,VALID,0,VALID,25.2027,VALID,17,VALID,1.82539,
2010-02-05, 00:02:04,VALID,1006.33,VALID,0,VALID,71.6504,VALID,0,VALID,25.2611,VALID,23,VALID,2.66563,
2010-02-05, 00:03:04,VALID,1006.35,VALID,0,VALID,71.9175,VALID,0,VALID,25.3993,VALID,29,VALID,1.58438,
2010-02-05, 00:04:04,VALID,1006.37,VALID,0,VALID,72.2379,VALID,0,VALID,25.4344,VALID,23,VALID,1.59805,
2010-02-05, 00:05:04,VALID,1006.34,VALID,0,VALID,72.1921,VALID,0,VALID,25.4149,VALID,8,VALID,1.26016,
2010-02-05, 00:06:04,VALID,1006.3,VALID,0,VALID,71.2537,VALID,0,VALID,25.4363,VALID,63,VALID,1.76133,
2010-02-05, 00:07:04,VALID,1006.31,VALID,0,VALID,72.215,VALID,0,VALID,25.4363,VALID,11,VALID,0.728516,
2010-02-05, 00:08:04,VALID,1006.3,VALID,0,VALID,71.948,VALID,0,VALID,25.3974,VALID,24,VALID,2.06641,
2010-02-05, 00:09:04,VALID,1006.29,VALID,0,VALID,72.9779,VALID,0,VALID,25.3779,VALID,16,VALID,0.737109,
2010-02-05, 00:10:04,VALID,1006.28,VALID,0,VALID,72.4362,VALID,0,VALID,25.3584,VALID,11,VALID,1.33281,
2010-02-05, 00:11:04,VALID,1006.3,VALID,0,VALID,73.428,VALID,0,VALID,25.3195,VALID,26,VALID,1.17656,
2010-02-05, 00:12:04,VALID,1006.28,VALID,0,VALID,72.4591,VALID,0,VALID,25.3214,VALID,20,VALID,1.21953,
2010-02-05, 00:13:04,VALID,1006.28,VALID,0,VALID,72.5888,VALID,0,VALID,25.2786,VALID,23,VALID,1.61563,
2010-02-05, 00:14:04,VALID,1006.28,VALID,0,VALID,72.7948,VALID,0,VALID,25.2981,VALID,3,VALID,1.96172,
2010-02-05, 00:15:04,VALID,1006.26,VALID,0,VALID,73.6874,VALID,0,VALID,25.2786,VALID,27,VALID,0.881641,
2010-02-05, 00:16:04,VALID,1006.26,VALID,0,VALID,72.9397,VALID,0,VALID,25.2416,VALID,9,VALID,2.08828,
2010-02-05, 00:17:04,VALID,1006.25,VALID,0,VALID,72.6346,VALID,0,VALID,25.2397,VALID,23,VALID,2.14492,
2010-02-05, 00:18:04,VALID,1006.23,VALID,0,VALID,73.1991,VALID,0,VALID,25.2592,VALID,19,VALID,1.49648,
2010-02-05, 00:19:04,VALID,1006.22,VALID,0,VALID,74.0612,VALID,0,VALID,25.2397,VALID,24,VALID,1.18906,
2010-02-05, 00:20:04,VALID,1006.19,VALID,0,VALID,72.1921,VALID,0,VALID,25.2397,VALID,25,VALID,2.02461,
2010-02-05, 00:21:04,VALID,1006.19,VALID,0,VALID,73.0313,VALID,0,VALID,25.3604,VALID,17,VALID,1.62773,
2010-02-05, 00:22:04,VALID,1006.16,VALID,0,VALID,73.3212,VALID,0,VALID,25.3195,VALID,21,VALID,1.43203,
2010-02-05, 00:23:04,VALID,1006.17,VALID,0,VALID,73.5577,VALID,0,VALID,25.3195,VALID,20,VALID,1.40703,
2010-02-05, 00:24:04,VALID,1006.14,VALID,0,VALID,73.489,VALID,0,VALID,25.2806,VALID,24,VALID,1.21758,
2010-02-05, 00:25:04,VALID,1006.17,VALID,0,VALID,73.9544,VALID,0,VALID,25.2416,VALID,16,VALID,1.41875,
2010-02-05, 00:26:04,VALID,1006.15,VALID,0,VALID,74.168,VALID,0,VALID,25.2027,VALID,8,VALID,1.42617,
2010-02-05, 00:27:04,VALID,1006.16,VALID,0,VALID,73.6874,VALID,0,VALID,25.1637,VALID,19,VALID,1.61992,
2010-02-05, 00:28:04,VALID,1006.17,VALID,0,VALID,73.8018,VALID,0,VALID,25.2416,VALID,24,VALID,1.53555,
2010-02-05, 00:29:04,VALID,1006.12,VALID,0,VALID,73.8399,VALID,0,VALID,25.2611,VALID,19,VALID,1.34844,
2010-02-05, 00:30:04,VALID,1006.12,VALID,0,VALID,74.1222,VALID,0,VALID,25.2611,VALID,20,VALID,1.53281,
2010-02-05, 00:31:04,VALID,1006.11,VALID,0,VALID,73.7713,VALID,0,VALID,25.2007,VALID,4,VALID,2.17148,
2010-02-05, 00:32:04,VALID,1006.12,VALID,0,VALID,74.2061,VALID,0,VALID,25.2202,VALID,32,VALID,1.30117,
2010-02-05, 00:33:04,VALID,1006.12,VALID,0,VALID,74.9843,VALID,0,VALID,25.2611,VALID,21,VALID,0.926172,
2010-02-05, 00:34:04,VALID,1006.13,VALID,0,VALID,75.0148,VALID,0,VALID,25.2027,VALID,21,VALID,1.24492,
2010-02-05, 00:35:04,VALID,1006.13,VALID,0,VALID,75.3886,VALID,0,VALID,25.1423,VALID,29,VALID,0.880078,
2010-02-05, 00:36:04,VALID,1006.15,VALID,0,VALID,75.5641,VALID,0,VALID,25.1442,VALID,17,VALID,0.916406,
2010-02-05, 00:37:04,VALID,1006.14,VALID,0,VALID,75.1216,VALID,0,VALID,25.1034,VALID,39,VALID,0.593359,
2010-02-05, 00:38:04,VALID,1006.12,VALID,0,VALID,75.6327,VALID,0,VALID,25.1229,VALID,16,VALID,0.476172,
2010-02-05, 00:39:04,VALID,1006.17,VALID,0,VALID,75.4039,VALID,0,VALID,25.1637,VALID,10,VALID,0.826563,
2010-02-05, 00:40:04,VALID,1006.15,VALID,0,VALID,76.182,VALID,0,VALID,25.1442,VALID,10,VALID,0.176563,
2010-02-05, 00:41:04,VALID,1006.14,VALID,0,VALID,76.1362,VALID,0,VALID,25.1248,VALID,10,VALID,0.314453,
2010-02-05, 00:42:04,VALID,1006.12,VALID,0,VALID,75.6556,VALID,0,VALID,25.1053,VALID,10,VALID,0,
2010-02-05, 00:43:04,VALID,1006.13,VALID,0,VALID,75.5335,VALID,0,VALID,25.1248,VALID,10,VALID,0.1375,
2010-02-05, 00:44:04,VALID,1006.18,VALID,0,VALID,75.8234,VALID,0,VALID,25.2046,VALID,10,VALID,0.482031,
2010-02-05, 00:45:04,VALID,1006.14,VALID,0,VALID,74.5952,VALID,0,VALID,25.224,VALID,353,VALID,0.189844,
2010-02-05, 00:46:04,VALID,1006.15,VALID,0,VALID,74.3663,VALID,0,VALID,25.2416,VALID,353,VALID,0.00117188,
2010-02-05, 00:47:04,VALID,1006.17,VALID,0,VALID,75.3123,VALID,0,VALID,25.3019,VALID,315,VALID,0.53125,
2010-02-05, 00:48:04,VALID,1006.16,VALID,0,VALID,75.7472,VALID,0,VALID,25.2981,VALID,222,VALID,0.964063,
2010-02-05, 00:49:04,VALID,1006.18,VALID,0,VALID,74.4579,VALID,0,VALID,25.3409,VALID,209,VALID,1.01523,
2010-02-05, 00:50:04,VALID,1006.15,VALID,0,VALID,74.1756,VALID,0,VALID,25.339,VALID,193,VALID,1.00352,
2010-02-05, 00:51:04,VALID,1006.14,VALID,0,VALID,74.3206,VALID,0,VALID,25.3779,VALID,200,VALID,0.945703,
2010-02-05, 00:52:04,VALID,1006.17,VALID,0,VALID,73.9544,VALID,0,VALID,25.3584,VALID,199,VALID,1.04219,
2010-02-05, 00:53:04,VALID,1006.12,VALID,0,VALID,74.1375,VALID,0,VALID,25.3,VALID,208,VALID,1.06953,
2010-02-05, 00:54:04,VALID,1006.07,VALID,0,VALID,74.7783,VALID,0,VALID,25.2416,VALID,199,VALID,1.05664,
2010-02-05, 00:55:04,VALID,1006.11,VALID,0,VALID,76.037,VALID,0,VALID,25.1851,VALID,195,VALID,0.303516,
2010-02-05, 00:56:04,VALID,1006.1,VALID,0,VALID,76.1057,VALID,0,VALID,25.1248,VALID,195,VALID,0,
2010-02-05, 00:57:04,VALID,1006.11,VALID,0,VALID,76.2201,VALID,0,VALID,25.0644,VALID,195,VALID,0,
2010-02-05, 00:58:04,VALID,1006.11,VALID,0,VALID,76.3346,VALID,0,VALID,25.006,VALID,195,VALID,0.00429688,
2010-02-05, 00:59:04,VALID,1006.09,VALID,0,VALID,76.8305,VALID,0,VALID,25.0079,VALID,195,VALID,0,
2010-02-05, 01:00:04,VALID,1006.07,VALID,0,VALID,77.0441,VALID,0,VALID,24.969,VALID,195,VALID,0,
2010-02-05, 01:01:04,VALID,1006.09,VALID,0,VALID,77.3263,VALID,0,VALID,24.93,VALID,195,VALID,0.335938,
2010-02-05, 01:02:04,VALID,1006.09,VALID,0,VALID,77.0364,VALID,0,VALID,24.8911,VALID,195,VALID,0.131641,
2010-02-05, 01:03:04,VALID,1006.1,VALID,0,VALID,77.4408,VALID,0,VALID,24.8716,VALID,195,VALID,0,
2010-02-05, 01:04:04,VALID,1006.1,VALID,0,VALID,78.2189,VALID,0,VALID,24.8308,VALID,195,VALID,0,
2010-02-05, 01:05:04,VALID,1006.09,VALID,0,VALID,79.1725,VALID,0,VALID,24.8132,VALID,195,VALID,0,
2010-02-05, 01:06:04,VALID,1006.1,VALID,0,VALID,79.3251,VALID,0,VALID,24.7743,VALID,195,VALID,0.267578,
2010-02-05, 01:07:04,VALID,1006.09,VALID,0,VALID,80.7212,VALID,0,VALID,24.714,VALID,94,VALID,0.610156,
2010-02-05, 01:08:04,VALID,1006.08,VALID,0,VALID,80.9729,VALID,0,VALID,24.5972,VALID,57,VALID,0.747266,
2010-02-05, 01:09:04,VALID,1006.1,VALID,0,VALID,81.1865,VALID,0,VALID,24.5406,VALID,57,VALID,0.503516,
2010-02-05, 01:10:04,VALID,1006.06,VALID,0,VALID,81.9494,VALID,0,VALID,24.4822,VALID,56,VALID,0.569141,
2010-02-05, 01:11:04,VALID,1006.02,VALID,0,VALID,83.3684,VALID,0,VALID,24.422,VALID,56,VALID,0.626562,
2010-02-05, 01:12:04,VALID,1006,VALID,0,VALID,83.4828,VALID,0,VALID,24.4043,VALID,25,VALID,0.825,
2010-02-05, 01:13:04,VALID,1005.99,VALID,0,VALID,84.589,VALID,0,VALID,24.3265,VALID,13,VALID,0.591797,
2010-02-05, 01:14:04,VALID,1005.97,VALID,0,VALID,85.1536,VALID,0,VALID,24.2875,VALID,13,VALID,0.363281,
2010-02-05, 01:15:04,VALID,1005.96,VALID,0,VALID,84.7035,VALID,0,VALID,24.2291,VALID,13,VALID,0.3,
2010-02-05, 01:16:04,VALID,1005.95,VALID,0,VALID,83.3989,VALID,0,VALID,24.192,VALID,13,VALID,0.370313,
2010-02-05, 01:17:04,VALID,1005.91,VALID,0,VALID,83.1624,VALID,0,VALID,24.1707,VALID,13,VALID,0.378125,
2010-02-05, 01:18:04,VALID,1005.92,VALID,0,VALID,83.6278,VALID,0,VALID,24.1494,VALID,13,VALID,0.248437,
2010-02-05, 01:19:04,VALID,1005.85,VALID,0,VALID,84.0703,VALID,0,VALID,24.1513,VALID,13,VALID,0.482422,
2010-02-05, 01:20:04,VALID,1005.85,VALID,0,VALID,83.5973,VALID,0,VALID,24.0929,VALID,19,VALID,0.829297,
2010-02-05, 01:21:04,VALID,1005.82,VALID,0,VALID,84.0092,VALID,0,VALID,24.0539,VALID,24,VALID,0.594531,
2010-02-05, 01:22:04,VALID,1005.76,VALID,0,VALID,84.2457,VALID,0,VALID,24.015,VALID,24,VALID,0.510938,
2010-02-05, 01:23:04,VALID,1005.72,VALID,0,VALID,84.589,VALID,0,VALID,23.9761,VALID,24,VALID,0.649219,
2010-02-05, 01:24:04,VALID,1005.68,VALID,0,VALID,84.4136,VALID,0,VALID,23.9371,VALID,24,VALID,0.409766,
2010-02-05, 01:25:04,VALID,1005.68,VALID,0,VALID,84.3068,VALID,0,VALID,23.8982,VALID,24,VALID,0.288672,
2010-02-05, 01:26:04,VALID,1005.64,VALID,0,VALID,84.3602,VALID,0,VALID,23.8982,VALID,24,VALID,0.0757812,
2010-02-05, 01:27:04,VALID,1005.68,VALID,0,VALID,84.8332,VALID,0,VALID,23.8593,VALID,24,VALID,0.366406,
2010-02-05, 01:28:04,VALID,1005.68,VALID,0,VALID,85.0315,VALID,0,VALID,23.8203,VALID,24,VALID,0.205469,
2010-02-05, 01:29:04,VALID,1005.66,VALID,0,VALID,85.001,VALID,0,VALID,23.7814,VALID,24,VALID,0,
2010-02-05, 01:30:04,VALID,1005.62,VALID,0,VALID,84.5509,VALID,0,VALID,23.7425,VALID,24,VALID,0,
2010-02-05, 01:31:04,VALID,1005.6,VALID,0,VALID,85.1688,VALID,0.100563,VALID,23.7212,VALID,24,VALID,0.119141,
2010-02-05, 01:32:04,VALID,1005.6,VALID,0,VALID,85.4587,VALID,0.100563,VALID,23.6823,VALID,24,VALID,0.00703125,
2010-02-05, 01:33:04,VALID,1005.56,VALID,0,VALID,85.6418,VALID,0,VALID,23.6452,VALID,24,VALID,0.4625,
2010-02-05, 01:34:04,VALID,1005.54,VALID,0,VALID,85.6571,VALID,0,VALID,23.6062,VALID,24,VALID,0.312891,
2010-02-05, 01:35:04,VALID,1005.51,VALID,0,VALID,85.7639,VALID,0,VALID,23.5655,VALID,24,VALID,0,
2010-02-05, 01:36:04,VALID,1005.51,VALID,0,VALID,86.0843,VALID,0,VALID,23.5478,VALID,24,VALID,0,
2010-02-05, 01:37:04,VALID,1005.49,VALID,0,VALID,86.2903,VALID,0,VALID,23.4894,VALID,24,VALID,0.283984,
2010-02-05, 01:38:04,VALID,1005.5,VALID,0,VALID,86.4047,VALID,0,VALID,23.4505,VALID,28,VALID,0.326953,
2010-02-05, 01:39:04,VALID,1005.46,VALID,0,VALID,86.8395,VALID,0,VALID,23.3904,VALID,29,VALID,0.364453,
2010-02-05, 01:40:04,VALID,1005.43,VALID,0,VALID,87.0684,VALID,0,VALID,23.332,VALID,32,VALID,0.142969,
2010-02-05, 01:41:04,VALID,1005.42,VALID,0,VALID,87.4117,VALID,0,VALID,23.2736,VALID,32,VALID,0.242188,
2010-02-05, 01:42:04,VALID,1005.43,VALID,0,VALID,87.6635,VALID,0,VALID,23.2347,VALID,32,VALID,0.0628906,
2010-02-05, 01:43:04,VALID,1005.38,VALID,0,VALID,87.9152,VALID,0,VALID,23.1975,VALID,32,VALID,0.322656,
2010-02-05, 01:44:04,VALID,1005.39,VALID,0,VALID,88.1822,VALID,0,VALID,23.1568,VALID,32,VALID,0.176953,
2010-02-05, 01:45:04,VALID,1005.36,VALID,0,VALID,88.4874,VALID,0,VALID,23.079,VALID,32,VALID,0.301172,
2010-02-05, 01:46:04,VALID,1005.38,VALID,0,VALID,88.7849,VALID,0.100563,VALID,23.0401,VALID,32,VALID,0.260156,
2010-02-05, 01:47:04,VALID,1005.35,VALID,0,VALID,88.9756,VALID,0.100563,VALID,23.0029,VALID,52,VALID,0.652734,
2010-02-05, 01:48:04,VALID,1005.37,VALID,0,VALID,89.0977,VALID,0.100563,VALID,22.9233,VALID,62,VALID,0.398047,
2010-02-05, 01:49:04,VALID,1005.36,VALID,0,VALID,89.4105,VALID,0,VALID,22.9039,VALID,62,VALID,0.236328,
2010-02-05, 01:50:04,VALID,1005.38,VALID,0,VALID,89.6241,VALID,0.100563,VALID,22.8649,VALID,62,VALID,0.271875,
2010-02-05, 01:51:04,VALID,1005.35,VALID,0,VALID,89.7996,VALID,0.100563,VALID,22.826,VALID,62,VALID,0.194922,
2010-02-05, 01:52:04,VALID,1005.35,VALID,0,VALID,89.975,VALID,0,VALID,22.8278,VALID,62,VALID,0.230078,
2010-02-05, 01:53:04,VALID,1005.32,VALID,0,VALID,89.975,VALID,0,VALID,22.7677,VALID,62,VALID,0.242188,
2010-02-05, 01:54:04,VALID,1005.32,VALID,0,VALID,89.9369,VALID,0,VALID,22.7482,VALID,62,VALID,0.212891,
2010-02-05, 01:55:04,VALID,1005.36,VALID,0,VALID,89.9064,VALID,0.100563,VALID,22.7482,VALID,62,VALID,0.493359,
2010-02-05, 01:56:04,VALID,1005.32,VALID,0,VALID,89.9216,VALID,0.100563,VALID,22.7287,VALID,62,VALID,0.428516,
2010-02-05, 01:57:04,VALID,1005.31,VALID,0,VALID,89.9369,VALID,0.100563,VALID,22.7287,VALID,62,VALID,0.357812,
2010-02-05, 01:58:04,VALID,1005.29,VALID,0,VALID,89.8682,VALID,0.100563,VALID,22.7287,VALID,62,VALID,0.173828,
2010-02-05, 01:59:04,VALID,1005.25,VALID,0,VALID,89.853,VALID,0,VALID,22.6915,VALID,62,VALID,0.212109,
2010-02-05, 02:00:04,VALID,1005.23,VALID,0,VALID,89.7309,VALID,0,VALID,22.711,VALID,62,VALID,0.246875,
2010-02-05, 02:01:04,VALID,1005.25,VALID,0,VALID,89.6775,VALID,0,VALID,22.711,VALID,62,VALID,0.391016,
2010-02-05, 02:02:04,VALID,1005.23,VALID,0,VALID,89.5936,VALID,0,VALID,22.711,VALID,65,VALID,0.733594,
2010-02-05, 02:03:04,VALID,1005.21,VALID,0,VALID,89.6088,VALID,0,VALID,22.6898,VALID,67,VALID,0.702344,
2010-02-05, 02:04:04,VALID,1005.23,VALID,0,VALID,89.6088,VALID,0,VALID,22.6915,VALID,73,VALID,0.774609,
2010-02-05, 02:05:04,VALID,1005.23,VALID,0,VALID,89.6546,VALID,0,VALID,22.6915,VALID,77,VALID,0.666016,
2010-02-05, 02:06:04,VALID,1005.26,VALID,0,VALID,89.8682,VALID,0,VALID,22.6721,VALID,77,VALID,0.165234,
2010-02-05, 02:07:04,VALID,1005.26,VALID,0,VALID,90.1886,VALID,0,VALID,22.6509,VALID,77,VALID,0.263281,
2010-02-05, 02:08:04,VALID,1005.25,VALID,0,VALID,90.3259,VALID,0,VALID,22.6526,VALID,77,VALID,0.151953,
2010-02-05, 02:09:04,VALID,1005.26,VALID,0,VALID,90.4251,VALID,0,VALID,22.6137,VALID,77,VALID,0,
2010-02-05, 02:10:04,VALID,1005.31,VALID,0,VALID,90.387,VALID,0,VALID,22.5942,VALID,77,VALID,0,
2010-02-05, 02:11:04,VALID,1005.3,VALID,0,VALID,90.448,VALID,0,VALID,22.5748,VALID,77,VALID,0,
2010-02-05, 02:12:04,VALID,1005.31,VALID,0,VALID,90.3946,VALID,0,VALID,22.5536,VALID,77,VALID,0,
2010-02-05, 02:13:04,VALID,1005.31,VALID,0,VALID,90.4175,VALID,0,VALID,22.5553,VALID,77,VALID,0,
2010-02-05, 02:14:04,VALID,1005.3,VALID,0,VALID,90.4785,VALID,0,VALID,22.5164,VALID,77,VALID,0,
2010-02-05, 02:15:04,VALID,1005.34,VALID,0,VALID,90.4709,VALID,0,VALID,22.497,VALID,77,VALID,0,
2010-02-05, 02:16:04,VALID,1005.36,VALID,0,VALID,90.5243,VALID,0,VALID,22.5164,VALID,77,VALID,0,
2010-02-05, 02:17:04,VALID,1005.38,VALID,0,VALID,90.7303,VALID,0,VALID,22.5164,VALID,77,VALID,0.0636719,
2010-02-05, 02:18:04,VALID,1005.37,VALID,0,VALID,90.9973,VALID,0,VALID,22.5164,VALID,75,VALID,0.428906,
2010-02-05, 02:19:04,VALID,1005.39,VALID,0,VALID,91.2338,VALID,0,VALID,22.4758,VALID,54,VALID,0.374219,
2010-02-05, 02:20:04,VALID,1005.37,VALID,0,VALID,91.3558,VALID,0,VALID,22.4563,VALID,54,VALID,0.380469,
2010-02-05, 02:21:04,VALID,1005.37,VALID,0,VALID,91.4016,VALID,0,VALID,22.4369,VALID,54,VALID,0.30625,
2010-02-05, 02:22:04,VALID,1005.37,VALID,0,VALID,91.5161,VALID,0,VALID,22.4775,VALID,54,VALID,0.328516,
2010-02-05, 02:23:04,VALID,1005.37,VALID,0,VALID,91.6305,VALID,0,VALID,22.497,VALID,54,VALID,0.285937,
2010-02-05, 02:24:04,VALID,1005.39,VALID,0,VALID,91.6229,VALID,0,VALID,22.4775,VALID,54,VALID,0.121484,
2010-02-05, 02:25:04,VALID,1005.38,VALID,0,VALID,91.6686,VALID,0,VALID,22.497,VALID,54,VALID,0.387109,
2010-02-05, 02:26:04,VALID,1005.41,VALID,0,VALID,91.6381,VALID,0,VALID,22.5164,VALID,54,VALID,0.261719,
2010-02-05, 02:27:04,VALID,1005.4,VALID,0,VALID,91.6,VALID,0,VALID,22.5147,VALID,54,VALID,0.314844,
2010-02-05, 02:28:04,VALID,1005.38,VALID,0,VALID,91.4321,VALID,0,VALID,22.5342,VALID,54,VALID,0.477734,
2010-02-05, 02:29:04,VALID,1005.36,VALID,0,VALID,91.1041,VALID,0,VALID,22.5925,VALID,54,VALID,0.311328,
2010-02-05, 02:30:04,VALID,1005.36,VALID,0,VALID,90.5243,VALID,0,VALID,22.6509,VALID,53,VALID,0.616797,
2010-02-05, 02:31:04,VALID,1005.32,VALID,0,VALID,90.4556,VALID,0,VALID,22.7499,VALID,53,VALID,0.332422,
2010-02-05, 02:32:04,VALID,1005.31,VALID,0,VALID,90.509,VALID,0,VALID,22.8083,VALID,53,VALID,0.536328,
2010-02-05, 02:33:04,VALID,1005.29,VALID,0,VALID,90.387,VALID,0,VALID,22.7871,VALID,46,VALID,0.723437,
2010-02-05, 02:34:04,VALID,1005.29,VALID,0,VALID,90.6692,VALID,0,VALID,22.8472,VALID,37,VALID,0.661328,
2010-02-05, 02:35:04,VALID,1005.29,VALID,0,VALID,90.8447,VALID,0,VALID,22.8455,VALID,36,VALID,0.478516,
2010-02-05, 02:36:04,VALID,1005.28,VALID,0,VALID,90.6082,VALID,0,VALID,22.8861,VALID,12,VALID,0.512891,
2010-02-05, 02:37:04,VALID,1005.31,VALID,0,VALID,90.7532,VALID,0,VALID,22.8861,VALID,12,VALID,0.679297,
2010-02-05, 02:38:04,VALID,1005.3,VALID,0,VALID,90.9668,VALID,0,VALID,22.9056,VALID,12,VALID,0.428125,
2010-02-05, 02:39:04,VALID,1005.28,VALID,0,VALID,90.9973,VALID,0,VALID,22.9056,VALID,12,VALID,0.364453,
2010-02-05, 02:40:04,VALID,1005.29,VALID,0,VALID,90.9515,VALID,0,VALID,22.8844,VALID,12,VALID,0.14375,
2010-02-05, 02:41:04,VALID,1005.3,VALID,0,VALID,90.8295,VALID,0,VALID,22.9445,VALID,12,VALID,0.466797,
2010-02-05, 02:42:04,VALID,1005.31,VALID,0,VALID,89.6165,VALID,0,VALID,22.9817,VALID,12,VALID,0.434766,
2010-02-05, 02:43:04,VALID,1005.31,VALID,0,VALID,88.6781,VALID,0,VALID,23.1197,VALID,12,VALID,0.309375,
2010-02-05, 02:44:04,VALID,1005.33,VALID,0,VALID,88.5789,VALID,0,VALID,23.2152,VALID,12,VALID,0.139844,
2010-02-05, 02:45:04,VALID,1005.36,VALID,0,VALID,88.2509,VALID,0,VALID,23.2948,VALID,12,VALID,0.117969,
2010-02-05, 02:46:04,VALID,1005.36,VALID,0,VALID,88.434,VALID,0,VALID,23.3143,VALID,12,VALID,0.105859,
2010-02-05, 02:47:04,VALID,1005.37,VALID,0,VALID,88.0144,VALID,0,VALID,23.3337,VALID,15,VALID,0.404687,
2010-02-05, 02:48:04,VALID,1005.37,VALID,0,VALID,87.7321,VALID,0,VALID,23.3727,VALID,15,VALID,0.307813,
2010-02-05, 02:49:04,VALID,1005.4,VALID,0,VALID,88.6171,VALID,0,VALID,23.3904,VALID,14,VALID,0.548437,
2010-02-05, 02:50:04,VALID,1005.38,VALID,0,VALID,88.5255,VALID,0,VALID,23.3921,VALID,13,VALID,0.457422,
2010-02-05, 02:51:04,VALID,1005.43,VALID,0,VALID,88.8765,VALID,0,VALID,23.3727,VALID,13,VALID,0.35625,
2010-02-05, 02:52:04,VALID,1005.42,VALID,0,VALID,89.113,VALID,0,VALID,23.3939,VALID,13,VALID,0.442578,
2010-02-05, 02:53:04,VALID,1005.44,VALID,0,VALID,89.1435,VALID,0,VALID,23.332,VALID,13,VALID,0.139453,
2010-02-05, 02:54:04,VALID,1005.44,VALID,0,VALID,89.3647,VALID,0,VALID,23.3727,VALID,13,VALID,0,
2010-02-05, 02:55:04,VALID,1005.44,VALID,0,VALID,89.38,VALID,0,VALID,23.3727,VALID,13,VALID,0,
2010-02-05, 02:56:04,VALID,1005.46,VALID,0,VALID,89.502,VALID,0,VALID,23.3532,VALID,13,VALID,0,
2010-02-05, 02:57:04,VALID,1005.47,VALID,0,VALID,89.4944,VALID,0,VALID,23.332,VALID,13,VALID,0,
2010-02-05, 02:58:04,VALID,1005.47,VALID,0,VALID,89.7156,VALID,0,VALID,23.332,VALID,13,VALID,0,
2010-02-05, 02:59:04,VALID,1005.5,VALID,0,VALID,89.8835,VALID,0,VALID,23.3125,VALID,13,VALID,0.474609,
2010-02-05, 03:00:04,VALID,1005.48,VALID,0,VALID,90.1352,VALID,0,VALID,23.3143,VALID,13,VALID,0.541406,
2010-02-05, 03:01:04,VALID,1005.46,VALID,0,VALID,90.3183,VALID,0,VALID,23.2736,VALID,13,VALID,0.453516,
2010-02-05, 03:02:04,VALID,1005.46,VALID,0,VALID,90.5167,VALID,0,VALID,23.2541,VALID,13,VALID,0.482031,
2010-02-05, 03:03:04,VALID,1005.45,VALID,0,VALID,90.6158,VALID,0,VALID,23.1957,VALID,13,VALID,0.669922,
2010-02-05, 03:04:04,VALID,1005.45,VALID,0,VALID,90.6845,VALID,0,VALID,23.1763,VALID,7,VALID,0.594922,
2010-02-05, 03:05:04,VALID,1005.47,VALID,0,VALID,90.7532,VALID,0,VALID,23.1586,VALID,7,VALID,0.307422,
2010-02-05, 03:06:04,VALID,1005.51,VALID,0,VALID,90.9973,VALID,0,VALID,23.1391,VALID,7,VALID,0.15625,
2010-02-05, 03:07:04,VALID,1005.54,VALID,0,VALID,91.1346,VALID,0,VALID,23.1391,VALID,7,VALID,0,
2010-02-05, 03:08:04,VALID,1005.53,VALID,0,VALID,91.2109,VALID,0,VALID,23.1002,VALID,7,VALID,0,
2010-02-05, 03:09:04,VALID,1005.56,VALID,0,VALID,91.3864,VALID,0,VALID,23.0595,VALID,7,VALID,0,
2010-02-05, 03:10:04,VALID,1005.59,VALID,0,VALID,91.455,VALID,0,VALID,23.0206,VALID,7,VALID,0.271094,
2010-02-05, 03:11:04,VALID,1005.59,VALID,0,VALID,91.4703,VALID,0,VALID,23.0206,VALID,7,VALID,0.459766,
2010-02-05, 03:12:04,VALID,1005.62,VALID,0,VALID,91.5771,VALID,0,VALID,23.0224,VALID,7,VALID,0.403516,
2010-02-05, 03:13:04,VALID,1005.63,VALID,0,VALID,91.661,VALID,0,VALID,22.9622,VALID,7,VALID,0,
2010-02-05, 03:14:04,VALID,1005.63,VALID,0,VALID,91.7373,VALID,0,VALID,22.9834,VALID,7,VALID,0.133203,
2010-02-05, 03:15:04,VALID,1005.66,VALID,0,VALID,91.7678,VALID,0,VALID,22.9233,VALID,7,VALID,0.0148437,
2010-02-05, 03:16:04,VALID,1005.63,VALID,0,VALID,91.6763,VALID,0,VALID,22.9445,VALID,7,VALID,0.244531,
2010-02-05, 03:17:04,VALID,1005.63,VALID,0,VALID,91.5389,VALID,0,VALID,22.9056,VALID,7,VALID,0.522656,
2010-02-05, 03:18:04,VALID,1005.61,VALID,0,VALID,91.5084,VALID,0,VALID,22.8861,VALID,7,VALID,0.505859,
2010-02-05, 03:19:04,VALID,1005.62,VALID,0,VALID,91.5237,VALID,0,VALID,22.8844,VALID,7,VALID,0.0457031,
2010-02-05, 03:20:04,VALID,1005.62,VALID,0,VALID,91.5237,VALID,0,VALID,22.8667,VALID,7,VALID,0,
2010-02-05, 03:21:04,VALID,1005.59,VALID,0,VALID,91.5771,VALID,0,VALID,22.8455,VALID,7,VALID,0,
2010-02-05, 03:22:04,VALID,1005.59,VALID,0,VALID,91.6915,VALID,0,VALID,22.8278,VALID,7,VALID,0,
2010-02-05, 03:23:04,VALID,1005.6,VALID,0,VALID,91.7831,VALID,0,VALID,22.7871,VALID,7,VALID,0,
2010-02-05, 03:24:04,VALID,1005.57,VALID,0,VALID,91.8441,VALID,0,VALID,22.7677,VALID,7,VALID,0.494922,
2010-02-05, 03:25:04,VALID,1005.58,VALID,0,VALID,91.8822,VALID,0,VALID,22.7694,VALID,8,VALID,0.726953,
2010-02-05, 03:26:04,VALID,1005.56,VALID,0,VALID,91.8975,VALID,0,VALID,22.7482,VALID,11,VALID,0.584766,
2010-02-05, 03:27:04,VALID,1005.54,VALID,0,VALID,91.8594,VALID,0,VALID,22.7694,VALID,11,VALID,0.485547,
2010-02-05, 03:28:04,VALID,1005.54,VALID,0,VALID,91.8212,VALID,0,VALID,22.7888,VALID,11,VALID,0.429688,
2010-02-05, 03:29:04,VALID,1005.53,VALID,0,VALID,91.7373,VALID,0,VALID,22.7888,VALID,11,VALID,0.486328,
2010-02-05, 03:30:04,VALID,1005.55,VALID,0,VALID,91.6839,VALID,0,VALID,22.8083,VALID,11,VALID,0.392188,
2010-02-05, 03:31:04,VALID,1005.55,VALID,0,VALID,91.5771,VALID,0,VALID,22.8295,VALID,11,VALID,0,
2010-02-05, 03:32:04,VALID,1005.58,VALID,0,VALID,91.5542,VALID,0,VALID,22.8472,VALID,11,VALID,0,
2010-02-05, 03:33:04,VALID,1005.59,VALID,0,VALID,91.5084,VALID,0,VALID,22.8455,VALID,11,VALID,0,
2010-02-05, 03:34:04,VALID,1005.58,VALID,0,VALID,91.4855,VALID,0,VALID,22.8472,VALID,11,VALID,0,
2010-02-05, 03:35:04,VALID,1005.61,VALID,0,VALID,91.455,VALID,0,VALID,22.8667,VALID,11,VALID,0,
2010-02-05, 03:36:04,VALID,1005.63,VALID,0,VALID,91.4474,VALID,0,VALID,22.8472,VALID,11,VALID,0,
2010-02-05, 03:37:04,VALID,1005.66,VALID,0,VALID,91.4703,VALID,0,VALID,22.8667,VALID,28,VALID,0,
2010-02-05, 03:38:04,VALID,1005.66,VALID,0,VALID,91.5008,VALID,0,VALID,22.8667,VALID,121,VALID,0.408984,
2010-02-05, 03:39:04,VALID,1005.66,VALID,0,VALID,91.5466,VALID,0,VALID,22.8472,VALID,121,VALID,0.332422,
2010-02-05, 03:40:04,VALID,1005.7,VALID,0,VALID,91.5771,VALID,0,VALID,22.8066,VALID,121,VALID,0.180859,
2010-02-05, 03:41:04,VALID,1005.71,VALID,0,VALID,91.5771,VALID,0,VALID,22.8066,VALID,121,VALID,0.413281,
2010-02-05, 03:42:04,VALID,1005.72,VALID,0,VALID,91.5237,VALID,0,VALID,22.8472,VALID,120,VALID,0,
2010-02-05, 03:43:04,VALID,1005.75,VALID,0,VALID,91.4245,VALID,0,VALID,22.826,VALID,49,VALID,0.0292969,
2010-02-05, 03:44:04,VALID,1005.75,VALID,0,VALID,91.5466,VALID,0,VALID,22.8472,VALID,46,VALID,0.638672,
2010-02-05, 03:45:04,VALID,1005.74,VALID,0,VALID,91.6915,VALID,0,VALID,22.8667,VALID,24,VALID,0.653125,
2010-02-05, 03:46:04,VALID,1005.75,VALID,0,VALID,91.7678,VALID,0,VALID,22.8684,VALID,23,VALID,0.501562,
2010-02-05, 03:47:04,VALID,1005.76,VALID,0,VALID,91.8059,VALID,0,VALID,22.8066,VALID,23,VALID,0.485547,
2010-02-05, 03:48:04,VALID,1005.75,VALID,0,VALID,91.9356,VALID,0,VALID,22.8083,VALID,23,VALID,0.528906,